Find Starlink 34408

NORAD ID: 64363 Int'l Des: 2025-126 Owner: SPXS Country: US Constellation: starlink operational
LEOCIRCULAR

現在のビュー

3D地球を読み込み中...

About Starlink 34408

Starlink 34408 (NORAD 64363) is a starlink constellation satellite (v2 mini) launched Jun 13, 2025 by SPXS of US. It operates in LEO, CIRCULAR orbit with a mass of 575.00 kg.

次回通過

Passes for default location (London). Set your location on the main map for personalized predictions.

高度履歴

Loading altitude history...

軌道要素

1 64363U 25126V 26263.97969616 .00008875 00000-0 31270-3 0 9994
2 64363 69.9999 259.6976 0002979 269.5638 90.5195 15.29591033 69995
Epoch: Sep 20, 2026 • Age: 26 hours

現在のステータス

高度 484.5 km
遠地点 / 近地点 N/A
速度 7.63 km/s
衛星直下点 44.34°N, 37.23°E
打ち上げ日 Jun 13, 2025
運用期間 1.2 years
タイプ internet

技術仕様

分類 Payload
質量 575.00 kg
乾燥質量 530.00 kg
長さ 0.30 m
スパン 29.00 m
形状 ? Box + pan
製造者 SPXS
バスタイプ Starlink V2MO
フェーズステータス In Orbit
所有者/国 SPXS/US

Most Searched